SCP
-0 0 -0 -0 0 -0 -0 -0 -0 -0 -0 -0 -0 -0 -0 -0 -0 -0 -0 -0 -0 -0 -0 -0 -0 -0 -0 -0 -0 -0 -0 -0 -0 -0 -0 -0 -0 -0 -0 -0 0 0 -0
-0 -0 -0 -0 0 -0 -0 -0 -0 -0 -0 -0 -0 -0 -0 -0 -0 -0 -0 -0 -0 -0 -0 -0 -0 -0 -0 -0 -0 -0 -0 -0 -0 0 0 0 -0 0 0 0 0 0 0
-0 -0 -0 -0 0 0 -0 -0 -0 -0 -0 -0 -0 -0 -0 -0 -0 -0 -0 -0 -0 -0 -0 -0 -0 -0 -0 -0 -0 -0 -0 -0 0 0 0 -0 -0 0 0 0 0 0 -0
-0 -0 -0 -0 -0 0 0 0 0 -0 -0 -0 -0 -0 -0 -0 -0 -0 -0 -0 -0 -0 -0 -0 -0 0 0 0 0 0 0 0 0 0 -0 -0 -0 -0 0 0 0 0 0
0 0 0 -0 -0 -0 0 0 0 0 0 0 0 0 0 0 0 0 0 0 0 0 0 0 0 0 0 0 0 0 0 0 0 0 0 0 -0 -0 0 0 0 0 0
0 0 0 -0 -0 -0 -0 0 0 0 0 0 0 0 0 0 0 0 0 0 0 0 0 0 0 0 0 0 0 0 0 0 0 0 0 0 -0 -0 0 0 0 0 0
0 0 0 0 -0 -0 -0 -0 0 0 0 0 0 0 0 0 0 0 0 0 0 0 0 0 0 0 0 0 0 0 0 0 0 0 0 0 -0 0 0 0 0 0 0
0 0 0 0 0 0 -0 0 0 0 0 0 0 0 0 0 0 0 0 0 0 0 0 0 0 0 0 0 0 0 0 0 0 0 0 0 0 0 0 0 0 0 0
0 0 0 0 0 0 0 0 0 0 0 0 0 0 0 0 0 0 0 0 0 0 0 0 0 0 0 0 0 0 0 0 0 0 0 0 0 0 0 0 0 0 0
0 0 0 0 0 0 0 0 0 0 0 0 0 0 0 0 0 0 0 0 0 0 0 0 0 0 0 0 0 0 0 0 0 0 0 0 0 0 0 0 0 0 0
0 0 0 0 0 0 0 0 0 0 0 0 0 0 0 0 0 0 0 0 0 0 0 0 0 0 0 0 0 0 0 0 0 0 0 0 0 0 0 0 0 0 0
0 0 0 0 0 0 0 0 0 0 0 0 0 0 0 0 0 0 0 0 0 0 0 0 0 0 0 0 0 0 0 0 0 0 0 0 0 0 0 0 0 0 0
0 0 0 0 0 0 0 0 0 0 0 0 0 0 0 0 0 0 0 0 0 0 0 0 0 0 0 0 0 0 0 0 0 0 0 0 0 0 0 0 0 0 0
0 0 0 0 0 0 0 0 0 0 0 0 0 0 0 0 0 0 0 0 0 0 0 0 0 0 0 0 0 0 0 0 0 0 0 0 0 0 0 0 0 0 0
0 0 0 0 0 0 0 0 0 0 0 0 0 0 0 0 0 0 0 0 0 0 0 0 0 0 0 0 0 0 0 0 0 0 0 0 0 0 0 0 0 0 0
0 0 0 0 0 0 0 0 0 0 0 0 0 0 0 0 0 0 0 0 0 0 0 0 0 0 0 0 0 0 0 0 0 0 0 0 0 0 0 0 0 0 0
0 0 0 0 0 0 0 0 0 0 0 0 0 0 0 0 0 0 0 0 0 0 0 0 0 0 0 0 0 0 0 0 0 0 0 0 0 0 0 0 0 0 0
0 0 0 0 0 0 0 0 0 0 0 0 0 0 0 0 0 0 0 0 0 0 0 0 0 0 0 0 0 0 0 0 0 0 0 0 0 0 0 0 0 0 0
0 0 0 0 0 0 0 0 0 0 0 0 0 0 0 0 0 0 0 0 0 0 0 0 0 0 0 0 0 0 0 0 0 0 0 0 0 0 0 0 0 0 0
0 0 0 0 0 0 0 0 0 0 0 0 0 0 0 0 0 0 0 0 0 0 0 0 0 0 0 0 0 0 0 0 0 0 0 0 0 0 0 0 0 0 0
0 0 0 0 0 0 0 0 0 0 0 0 0 0 0 0 0 0 0 0 0 0 0 0 0 0 0 0 0 0 0 0 0 0 0 0 0 0 0 0 0 0 0
0 0 0 0 0 0 0 0 0 0 0 0 0 0 0 0 0 0 0 0 0 0 0 0 0 0 0 0 0 0 0 0 0 0 0 0 0 0 0 0 0 0 0
0 0 0 0 0 0 0 0 0 0 0 0 0 0 0 0 0 0 0 0 0 0 0 0 0 0 0 0 0 0 0 0 0 0 0 0 0 0 0 0 0 0 0
0 0 0 0 0 0 0 0 0 0 0 0 0 0 0 0 0 0 0 0 0 0 0 0 0 0 0 0 0 0 0 0 0 0 0 0 0 0 0 0 0 0 0
0 0 0 0 0 0 0 0 0 0 0 0 0 0 0 0 0 0 0 0 0 0 0 0 0 0 0 0 0 0 0 0 0 0 0 0 0 0 0 0 0 0 0
0 0 0 0 0 0 0 0 0 0 0 0 0 0 0 0 0 0 0 0 0 0 0 0 0 0 0 0 0 0 0 0 0 0 0 0 0 0 0 0 0 0 0
Wind_Speed_500mb
56 48 38 31 35 37 31 26 25 23 21 17 18 21 22 22 23 24 25 25 24 23 23 23 23 22 22 21 20 21 21 22 24 24 26 26 27 28 28 27 26 26 25
61 52 40 37 44 42 41 32 23 21 22 20 22 23 26 26 25 25 26 24 23 22 21 21 21 21 20 20 19 20 22 23 25 25 27 27 27 30 32 32 31 33 35
60 54 46 42 47 49 40 33 25 26 22 23 24 25 26 25 24 24 23 23 22 22 22 22 21 20 20 20 18 20 22 25 24 25 27 29 30 28 34 30 31 33 32
59 56 51 47 46 52 40 36 27 25 25 26 26 26 25 24 23 22 21 23 21 20 22 23 22 21 21 19 18 21 23 24 24 25 28 29 30 26 22 24 25 24 25
62 58 55 52 45 52 47 37 27 26 28 29 29 27 23 21 21 21 21 22 19 21 23 22 22 20 20 18 19 21 21 23 23 24 26 26 25 27 19 21 22 23 28
63 61 55 51 44 41 44 37 30 29 31 29 27 26 23 22 22 23 22 22 21 21 20 20 20 19 17 17 20 22 21 23 23 25 24 22 22 20 16 23 35 33 31
63 60 56 51 46 36 36 36 34 33 32 31 28 27 25 25 25 24 24 22 20 17 18 19 21 20 18 19 19 15 20 25 30 30 27 28 27 25 36 30 21 19 20
63 62 57 50 43 37 38 39 38 36 34 32 31 28 28 27 25 24 22 22 20 17 18 19 19 19 16 15 12 18 19 19 21 21 37 38 35 31 25 17 14 6 7
59 59 59 53 43 40 41 41 40 38 36 34 31 31 30 28 26 25 23 22 19 17 17 16 16 12 10 8 10 13 12 13 11 15 11 26 22 22 18 7 6 10 20
60 58 55 51 47 46 44 42 41 39 36 35 36 33 30 28 27 25 22 19 16 14 15 15 9 9 6 3 6 10 11 9 11 12 15 12 10 8 8 13 13 20 25
64 60 59 55 49 45 43 44 43 41 39 40 38 34 30 27 25 23 20 18 16 11 8 9 4 7 7 6 9 10 8 6 3 3 18 10 4 4 8 19 15 20 25
75 69 65 61 53 47 45 46 45 44 44 42 39 36 30 22 18 16 17 18 16 14 6 6 5 9 4 4 11 10 7 3 4 6 18 15 18 6 11 17 19 24 26
86 78 73 65 56 48 45 47 46 46 45 42 39 30 21 24 17 15 16 17 12 10 7 10 9 9 7 7 9 7 6 3 2 3 4 6 8 6 9 17 27 26 27
91 85 80 73 62 55 46 45 47 48 46 40 34 31 28 22 20 20 13 13 12 13 14 10 9 9 9 9 10 7 6 4 2 2 3 0 3 5 18 20 21 22 24
91 89 88 80 69 59 51 50 51 48 44 41 36 31 29 27 24 21 18 15 14 13 12 11 11 10 10 10 10 9 7 4 2 0 2 5 9 9 11 12 12 16 20
95 92 89 84 77 70 61 53 52 48 44 41 36 35 33 27 23 21 20 20 21 17 14 12 12 14 12 12 12 10 8 6 4 2 4 7 10 11 13 16 17 18 18
95 86 90 87 82 78 68 59 52 50 50 43 38 35 34 31 28 26 25 24 22 19 15 16 16 15 15 16 14 14 12 10 6 5 7 10 11 11 13 17 22 28 28
99 88 88 89 86 79 73 69 59 57 56 46 38 39 36 33 31 28 28 26 23 20 19 20 18 17 17 18 17 16 13 10 8 7 8 10 13 16 20 24 27 29 31
105 92 86 91 89 81 76 70 63 62 61 52 45 46 43 36 31 27 28 28 24 22 22 19 18 17 19 21 21 18 15 12 9 8 10 11 14 18 23 27 32 34 35
107 97 88 95 88 79 77 72 64 63 64 57 52 52 44 42 38 35 34 30 24 24 21 19 18 20 21 22 23 21 17 13 11 11 12 13 15 19 24 30 35 34 35
108 105 102 103 92 86 83 82 75 73 69 62 60 52 51 49 45 38 33 29 27 24 21 19 19 21 26 27 24 21 16 14 15 15 16 16 19 24 30 37 38 36 33
112 112 107 109 99 92 87 88 81 74 72 65 60 55 52 51 45 39 32 29 26 23 21 19 17 20 23 28 24 19 11 15 22 22 21 23 25 28 33 40 40 37 34
114 120 121 113 100 94 95 91 81 75 72 70 66 60 54 50 44 37 35 32 28 23 20 18 16 16 20 27 21 14 9 10 9 16 20 22 27 28 40 42 39 35 38
120 118 124 108 110 103 100 98 86 84 84 77 73 65 61 53 45 41 35 29 25 22 19 17 18 17 16 17 20 23 19 16 7 6 9 15 19 31 37 39 32 36 36
123 126 129 117 113 103 99 91 91 83 84 79 77 70 64 58 48 46 37 30 24 20 17 16 14 14 15 13 12 12 9 8 9 10 11 10 25 29 33 28 33 35 38
123 129 131 128 107 103 96 100 96 92 89 86 80 74 69 61 53 44 36 30 24 18 16 13 12 12 12 10 8 7 6 5 10 12 17 24 27 27 28 34 31 36 39
Wind_Direction_500mb
181 181 179 180 172 160 163 169 168 168 173 165 158 155 145 131 124 119 111 104 99 97 96 98 101 102 102 98 96 94 86 79 76 70 67 57 61 61 59 56 52 50 47
174 180 179 174 166 161 174 184 185 174 163 159 150 144 133 128 124 117 108 100 92 91 97 96 94 92 89 87 87 84 78 75 68 71 63 56 65 65 57 54 53 51 49
176 174 176 171 171 170 180 186 182 168 164 157 147 138 134 129 118 114 105 99 94 87 94 99 97 93 89 86 88 81 75 73 70 73 63 59 67 62 56 52 53 53 54
175 173 170 169 170 174 182 181 169 166 166 157 149 143 138 134 129 121 114 105 97 98 97 93 95 93 88 85 85 84 77 73 74 71 63 62 65 68 48 51 52 54 56
175 173 171 176 177 181 188 190 183 175 169 160 153 147 140 132 128 119 116 106 108 101 102 97 93 89 83 82 83 84 78 74 75 67 62 64 71 65 48 50 50 59 73
175 174 174 180 180 182 192 192 187 180 172 161 152 144 137 131 122 118 114 109 108 102 100 101 95 90 83 84 90 84 77 76 66 57 46 58 67 58 57 76 97 98 96
175 176 178 183 184 186 190 188 184 178 170 163 153 147 140 134 129 125 119 110 100 99 104 99 89 83 84 86 85 86 85 77 65 50 56 66 72 82 101 107 103 95 88
178 179 183 187 189 192 189 185 180 175 170 163 158 152 148 144 137 130 126 124 123 117 112 106 94 86 82 82 78 85 89 80 80 79 78 78 89 96 100 99 85 38 5
182 183 186 189 193 191 186 182 178 174 170 163 158 155 152 146 140 136 134 130 129 123 117 106 87 78 71 71 81 95 103 93 82 85 90 77 82 86 83 84 304 356 326
186 185 190 190 188 187 184 182 178 174 169 163 160 159 155 150 147 142 140 138 125 121 114 94 82 111 102 88 97 108 113 110 104 102 90 97 75 63 58 39 334 310 324
191 192 192 190 186 186 184 180 176 174 171 168 165 159 155 154 154 150 146 137 126 135 125 130 189 311 330 106 122 123 123 139 127 128 105 119 106 30 32 56 354 345 22
192 194 193 190 187 185 185 181 177 176 175 170 166 160 160 161 162 155 145 146 145 143 177 159 254 306 313 143 139 149 163 140 50 95 108 126 122 63 16 18 15 40 42
191 193 192 190 187 187 188 183 181 182 178 177 173 169 180 178 160 178 177 153 164 170 203 235 246 291 255 201 186 195 185 161 79 90 110 169 136 84 38 43 59 51 44
196 194 192 191 190 190 191 193 188 185 182 178 172 172 177 178 183 194 187 166 204 207 209 232 263 267 212 185 188 206 204 200 146 75 99 353 295 38 61 60 57 45 40
198 195 195 190 191 196 192 196 192 188 185 179 174 179 191 193 195 204 213 205 212 206 221 242 257 203 177 184 190 193 199 212 208 165 331 320 331 334 341 3 13 33 37
204 201 197 192 192 196 196 201 196 192 191 185 182 186 193 195 205 212 215 213 216 220 230 248 198 184 194 199 201 202 213 212 219 310 349 352 352 351 353 357 351 349 355
209 203 198 196 195 195 195 203 199 193 187 185 187 194 198 203 210 212 218 220 216 225 233 203 197 204 208 206 210 210 221 226 249 299 334 352 1 0 352 346 344 344 344
209 206 201 196 198 199 199 202 199 193 188 189 199 198 203 210 215 222 225 218 217 224 210 199 206 210 205 203 205 207 212 230 265 297 329 341 344 343 345 346 345 340 336
210 208 203 203 199 201 198 198 196 194 192 193 202 201 208 209 214 221 212 213 220 217 200 205 213 212 204 199 200 204 210 226 255 292 310 325 333 340 340 341 341 338 332
212 207 203 204 199 203 198 194 194 194 193 194 206 212 209 208 213 210 208 213 219 208 207 210 211 206 206 203 197 195 206 223 252 278 297 310 321 332 336 337 335 329 322
211 206 203 201 200 205 200 197 195 195 195 201 207 209 209 209 207 205 209 212 206 204 209 206 204 200 191 193 198 188 202 231 255 271 285 298 315 325 329 333 329 324 322
213 208 204 203 204 205 205 203 202 197 199 205 208 209 208 209 202 203 205 206 203 209 207 200 195 199 198 196 203 205 207 240 253 265 276 291 305 315 323 328 328 329 329
213 209 206 203 207 208 203 204 205 202 203 205 207 205 204 205 197 202 199 197 201 199 205 199 196 201 210 200 206 215 202 225 236 264 273 283 298 315 329 330 331 330 328
212 210 209 205 206 208 205 207 209 207 205 207 208 202 202 200 193 192 192 194 196 194 195 194 193 196 198 207 208 225 242 248 239 258 276 288 300 322 326 328 331 330 327
211 211 209 204 204 205 205 209 210 213 212 214 206 199 196 196 188 190 185 188 188 188 192 186 182 179 181 190 202 209 223 246 259 264 282 287 306 321 327 329 330 328 331
206 206 205 201 198 203 209 211 212 215 214 213 202 196 190 187 186 184 179 180 181 182 184 178 175 167 169 171 179 203 241 271 295 312 310 313 318 330 331 329 334 335 332
Wind_Speed_850mb
56 48 38 31 35 37 31 26 25 23 21 17 18 21 22 22 23 24 25 25 24 23 23 23 23 22 22 21 20 21 21 22 24 24 26 26 27 28 28 27 26 26 25
61 52 40 37 44 42 41 32 23 21 22 20 22 23 26 26 25 25 26 24 23 22 21 21 21 21 20 20 19 20 22 23 25 25 27 27 27 30 32 32 31 33 35
60 54 46 42 47 49 40 33 25 26 22 23 24 25 26 25 24 24 23 23 22 22 22 22 21 20 20 20 18 20 22 25 24 25 27 29 30 28 34 30 31 33 32
59 56 51 47 46 52 40 36 27 25 25 26 26 26 25 24 23 22 21 23 21 20 22 23 22 21 21 19 18 21 23 24 24 25 28 29 30 26 22 24 25 24 25
62 58 55 52 45 52 47 37 27 26 28 29 29 27 23 21 21 21 21 22 19 21 23 22 22 20 20 18 19 21 21 23 23 24 26 26 25 27 19 21 22 23 28
63 61 55 51 44 41 44 37 30 29 31 29 27 26 23 22 22 23 22 22 21 21 20 20 20 19 17 17 20 22 21 23 23 25 24 22 22 20 16 23 35 33 31
63 60 56 51 46 36 36 36 34 33 32 31 28 27 25 25 25 24 24 22 20 17 18 19 21 20 18 19 19 15 20 25 30 30 27 28 27 25 36 30 21 19 20
63 62 57 50 43 37 38 39 38 36 34 32 31 28 28 27 25 24 22 22 20 17 18 19 19 19 16 15 12 18 19 19 21 21 37 38 35 31 25 17 14 6 7
59 59 59 53 43 40 41 41 40 38 36 34 31 31 30 28 26 25 23 22 19 17 17 16 16 12 10 8 10 13 12 13 11 15 11 26 22 22 18 7 6 10 20
60 58 55 51 47 46 44 42 41 39 36 35 36 33 30 28 27 25 22 19 16 14 15 15 9 9 6 3 6 10 11 9 11 12 15 12 10 8 8 13 13 20 25
64 60 59 55 49 45 43 44 43 41 39 40 38 34 30 27 25 23 20 18 16 11 8 9 4 7 7 6 9 10 8 6 3 3 18 10 4 4 8 19 15 20 25
75 69 65 61 53 47 45 46 45 44 44 42 39 36 30 22 18 16 17 18 16 14 6 6 5 9 4 4 11 10 7 3 4 6 18 15 18 6 11 17 19 24 26
86 78 73 65 56 48 45 47 46 46 45 42 39 30 21 24 17 15 16 17 12 10 7 10 9 9 7 7 9 7 6 3 2 3 4 6 8 6 9 17 27 26 27
91 85 80 73 62 55 46 45 47 48 46 40 34 31 28 22 20 20 13 13 12 13 14 10 9 9 9 9 10 7 6 4 2 2 3 0 3 5 18 20 21 22 24
91 89 88 80 69 59 51 50 51 48 44 41 36 31 29 27 24 21 18 15 14 13 12 11 11 10 10 10 10 9 7 4 2 0 2 5 9 9 11 12 12 16 20
95 92 89 84 77 70 61 53 52 48 44 41 36 35 33 27 23 21 20 20 21 17 14 12 12 14 12 12 12 10 8 6 4 2 4 7 10 11 13 16 17 18 18
95 86 90 87 82 78 68 59 52 50 50 43 38 35 34 31 28 26 25 24 22 19 15 16 16 15 15 16 14 14 12 10 6 5 7 10 11 11 13 17 22 28 28
99 88 88 89 86 79 73 69 59 57 56 46 38 39 36 33 31 28 28 26 23 20 19 20 18 17 17 18 17 16 13 10 8 7 8 10 13 16 20 24 27 29 31
105 92 86 91 89 81 76 70 63 62 61 52 45 46 43 36 31 27 28 28 24 22 22 19 18 17 19 21 21 18 15 12 9 8 10 11 14 18 23 27 32 34 35
107 97 88 95 88 79 77 72 64 63 64 57 52 52 44 42 38 35 34 30 24 24 21 19 18 20 21 22 23 21 17 13 11 11 12 13 15 19 24 30 35 34 35
108 105 102 103 92 86 83 82 75 73 69 62 60 52 51 49 45 38 33 29 27 24 21 19 19 21 26 27 24 21 16 14 15 15 16 16 19 24 30 37 38 36 33
112 112 107 109 99 92 87 88 81 74 72 65 60 55 52 51 45 39 32 29 26 23 21 19 17 20 23 28 24 19 11 15 22 22 21 23 25 28 33 40 40 37 34
114 120 121 113 100 94 95 91 81 75 72 70 66 60 54 50 44 37 35 32 28 23 20 18 16 16 20 27 21 14 9 10 9 16 20 22 27 28 40 42 39 35 38
120 118 124 108 110 103 100 98 86 84 84 77 73 65 61 53 45 41 35 29 25 22 19 17 18 17 16 17 20 23 19 16 7 6 9 15 19 31 37 39 32 36 36
123 126 129 117 113 103 99 91 91 83 84 79 77 70 64 58 48 46 37 30 24 20 17 16 14 14 15 13 12 12 9 8 9 10 11 10 25 29 33 28 33 35 38
123 129 131 128 107 103 96 100 96 92 89 86 80 74 69 61 53 44 36 30 24 18 16 13 12 12 12 10 8 7 6 5 10 12 17 24 27 27 28 34 31 36 39
Wind_Direction_850mb
181 181 179 180 172 160 163 169 168 168 173 165 158 155 145 131 124 119 111 104 99 97 96 98 101 102 102 98 96 94 86 79 76 70 67 57 61 61 59 56 52 50 47
174 180 179 174 166 161 174 184 185 174 163 159 150 144 133 128 124 117 108 100 92 91 97 96 94 92 89 87 87 84 78 75 68 71 63 56 65 65 57 54 53 51 49
176 174 176 171 171 170 180 186 182 168 164 157 147 138 134 129 118 114 105 99 94 87 94 99 97 93 89 86 88 81 75 73 70 73 63 59 67 62 56 52 53 53 54
175 173 170 169 170 174 182 181 169 166 166 157 149 143 138 134 129 121 114 105 97 98 97 93 95 93 88 85 85 84 77 73 74 71 63 62 65 68 48 51 52 54 56
175 173 171 176 177 181 188 190 183 175 169 160 153 147 140 132 128 119 116 106 108 101 102 97 93 89 83 82 83 84 78 74 75 67 62 64 71 65 48 50 50 59 73
175 174 174 180 180 182 192 192 187 180 172 161 152 144 137 131 122 118 114 109 108 102 100 101 95 90 83 84 90 84 77 76 66 57 46 58 67 58 57 76 97 98 96
175 176 178 183 184 186 190 188 184 178 170 163 153 147 140 134 129 125 119 110 100 99 104 99 89 83 84 86 85 86 85 77 65 50 56 66 72 82 101 107 103 95 88
178 179 183 187 189 192 189 185 180 175 170 163 158 152 148 144 137 130 126 124 123 117 112 106 94 86 82 82 78 85 89 80 80 79 78 78 89 96 100 99 85 38 5
182 183 186 189 193 191 186 182 178 174 170 163 158 155 152 146 140 136 134 130 129 123 117 106 87 78 71 71 81 95 103 93 82 85 90 77 82 86 83 84 304 356 326
186 185 190 190 188 187 184 182 178 174 169 163 160 159 155 150 147 142 140 138 125 121 114 94 82 111 102 88 97 108 113 110 104 102 90 97 75 63 58 39 334 310 324
191 192 192 190 186 186 184 180 176 174 171 168 165 159 155 154 154 150 146 137 126 135 125 130 189 311 330 106 122 123 123 139 127 128 105 119 106 30 32 56 354 345 22
192 194 193 190 187 185 185 181 177 176 175 170 166 160 160 161 162 155 145 146 145 143 177 159 254 306 313 143 139 149 163 140 50 95 108 126 122 63 16 18 15 40 42
191 193 192 190 187 187 188 183 181 182 178 177 173 169 180 178 160 178 177 153 164 170 203 235 246 291 255 201 186 195 185 161 79 90 110 169 136 84 38 43 59 51 44
196 194 192 191 190 190 191 193 188 185 182 178 172 172 177 178 183 194 187 166 204 207 209 232 263 267 212 185 188 206 204 200 146 75 99 353 295 38 61 60 57 45 40
198 195 195 190 191 196 192 196 192 188 185 179 174 179 191 193 195 204 213 205 212 206 221 242 257 203 177 184 190 193 199 212 208 165 331 320 331 334 341 3 13 33 37
204 201 197 192 192 196 196 201 196 192 191 185 182 186 193 195 205 212 215 213 216 220 230 248 198 184 194 199 201 202 213 212 219 310 349 352 352 351 353 357 351 349 355
209 203 198 196 195 195 195 203 199 193 187 185 187 194 198 203 210 212 218 220 216 225 233 203 197 204 208 206 210 210 221 226 249 299 334 352 1 0 352 346 344 344 344
209 206 201 196 198 199 199 202 199 193 188 189 199 198 203 210 215 222 225 218 217 224 210 199 206 210 205 203 205 207 212 230 265 297 329 341 344 343 345 346 345 340 336
210 208 203 203 199 201 198 198 196 194 192 193 202 201 208 209 214 221 212 213 220 217 200 205 213 212 204 199 200 204 210 226 255 292 310 325 333 340 340 341 341 338 332
212 207 203 204 199 203 198 194 194 194 193 194 206 212 209 208 213 210 208 213 219 208 207 210 211 206 206 203 197 195 206 223 252 278 297 310 321 332 336 337 335 329 322
211 206 203 201 200 205 200 197 195 195 195 201 207 209 209 209 207 205 209 212 206 204 209 206 204 200 191 193 198 188 202 231 255 271 285 298 315 325 329 333 329 324 322
213 208 204 203 204 205 205 203 202 197 199 205 208 209 208 209 202 203 205 206 203 209 207 200 195 199 198 196 203 205 207 240 253 265 276 291 305 315 323 328 328 329 329
213 209 206 203 207 208 203 204 205 202 203 205 207 205 204 205 197 202 199 197 201 199 205 199 196 201 210 200 206 215 202 225 236 264 273 283 298 315 329 330 331 330 328
212 210 209 205 206 208 205 207 209 207 205 207 208 202 202 200 193 192 192 194 196 194 195 194 193 196 198 207 208 225 242 248 239 258 276 288 300 322 326 328 331 330 327
211 211 209 204 204 205 205 209 210 213 212 214 206 199 196 196 188 190 185 188 188 188 192 186 182 179 181 190 202 209 223 246 259 264 282 287 306 321 327 329 330 328 331
206 206 205 201 198 203 209 211 212 215 214 213 202 196 190 187 186 184 179 180 181 182 184 178 175 167 169 171 179 203 241 271 295 312 310 313 318 330 331 329 334 335 332